| time (UTC) | temp C | wind direction | speed KPH | gust KPH | rain 1hr cm | rain 24hr cm | rain mn cm | humidity % | barometer mb |
| 20260831160104 | 21 | 31 | 1.6 | 4.8 | 0.00 | 0.00 | 0.00 | 45 | 1013.0 |
| 20260831160002 | 21 | 35 | 1.6 | 4.8 | 0.00 | 0.00 | 0.00 | 46 | 1013.0 |
| 20260831154503 | 20 | 59 | 1.6 | 4.8 | 0.00 | 0.00 | 0.00 | 49 | 1013.0 |
| 20260831153003 | 19 | 44 | 1.6 | 4.8 | 0.00 | 0.00 | 0.00 | 52 | 1013.0 |
| 20260831151502 | 18 | 66 | 1.6 | 3.2 | 0.00 | 0.00 | 0.00 | 56 | 1013.1 |
| 20260831150002 | 16 | 58 | 0.0 | 3.2 | 0.00 | 0.00 | 0.00 | 60 | 1013.0 |
| 20260831144600 | 15 | 29 | 0.0 | 3.2 | 0.00 | 0.00 | 0.00 | 64 | 1013.0 |
| 20260831143119 | 15 | 312 | 0.0 | 1.6 | 0.00 | 0.00 | 0.00 | 65 | 1012.9 |
| 20260831141608 | 14 | 312 | 0.0 | 1.6 | 0.00 | 0.00 | 0.00 | 65 | 1012.9 |
| 20260831140005 | 14 | 312 | 0.0 | 3.2 | 0.00 | 0.00 | 0.00 | 65 | 1012.7 |
| 20260831134501 | 13 | 306 | 0.0 | 3.2 | 0.00 | 0.00 | 0.00 | 66 | 1012.4 |
| 20260831133002 | 14 | 30 | 0.0 | 1.6 | 0.00 | 0.00 | 0.00 | 64 | 1011.9 |
| 20260831131500 | 14 | 29 | 0.0 | 1.6 | 0.00 | 0.00 | 0.00 | 63 | 1011.8 |
| 20260831130001 | 14 | 30 | 0.0 | 3.2 | 0.00 | 0.00 | 0.00 | 65 | 1011.7 |
| 20260831124606 | 14 | 18 | 0.0 | 1.6 | 0.00 | 0.00 | 0.00 | 65 | 1011.7 |
| 20260831123002 | 14 | 48 | 0.0 | 0.0 | 0.00 | 0.00 | 0.00 | 64 | 1011.8 |
| 20260831121502 | 14 | 51 | 0.0 | 1.6 | 0.00 | 0.00 | 0.00 | 64 | 1011.8 |
| 20260831120001 | 15 | 51 | 0.0 | 1.6 | 0.00 | 0.00 | 0.00 | 61 | 1011.8 |
| 20260831114505 | 15 | 39 | 0.0 | 0.0 | 0.00 | 0.00 | 0.00 | 61 | 1011.8 |
| 20260831113002 | 14 | 39 | 0.0 | 3.2 | 0.00 | 0.00 | 0.00 | 64 | 1011.9 |
| 20260831111503 | 13 | 1 | 0.0 | 0.0 | 0.00 | 0.00 | 0.00 | 66 | 1012.0 |
| 20260831110110 | 13 | 349 | 0.0 | 0.0 | 0.00 | 0.00 | 0.00 | 66 | 1012.1 |
| 20260831104602 | 13 | 349 | 0.0 | 3.2 | 0.00 | 0.00 | 0.00 | 65 | 1012.1 |
| 20260831101503 | 15 | 349 | 0.0 | 1.6 | 0.00 | 0.00 | 0.00 | 62 | 1012.1 |
| 20260831094501 | 16 | 349 | 0.0 | 1.6 | 0.00 | 0.00 | 0.00 | 57 | 1012.1 |
| 20260831093000 | 16 | 349 | 0.0 | 1.6 | 0.00 | 0.00 | 0.00 | 56 | 1012.1 |
| 20260831091501 | 17 | 349 | 0.0 | 1.6 | 0.00 | 0.00 | 0.00 | 54 | 1012.2 |
| 20260831090002 | 17 | 27 | 0.0 | 3.2 | 0.00 | 0.00 | 0.00 | 54 | 1012.2 |
| 20260831084604 | 17 | 10 | 0.0 | 1.6 | 0.00 | 0.00 | 0.00 | 53 | 1012.4 |
| 20260831083104 | 17 | 14 | 0.0 | 1.6 | 0.00 | 0.00 | 0.00 | 52 | 1012.3 |
| 20260831081603 | 17 | 28 | 0.0 | 4.8 | 0.00 | 0.00 | 0.00 | 53 | 1012.4 |
| 20260831080002 | 16 | 32 | 0.0 | 1.6 | 0.00 | 0.00 | 0.00 | 55 | 1012.4 |
| 20260831074504 | 16 | 44 | 0.0 | 1.6 | 0.00 | 0.00 | 0.00 | 56 | 1012.5 |
| 20260831073101 | 17 | 44 | 0.0 | 1.6 | 0.00 | 0.00 | 0.00 | 54 | 1012.4 |
| 20260831073004 | 17 | 44 | 0.0 | 1.6 | 0.00 | 0.00 | 0.00 | 54 | 1012.4 |
| 20260831071502 | 17 | 44 | 0.0 | 3.2 | 0.00 | 0.00 | 0.00 | 54 | 1012.2 |
| 20260831070103 | 17 | 44 | 0.0 | 3.2 | 0.00 | 0.00 | 0.00 | 54 | 1012.3 |
| 20260831064502 | 17 | 44 | 0.0 | 1.6 | 0.00 | 0.00 | 0.00 | 52 | 1012.5 |
| 20260831063002 | 18 | 44 | 0.0 | 1.6 | 0.00 | 0.00 | 0.00 | 52 | 1012.4 |
| 20260831061506 | 18 | 44 | 0.0 | 1.6 | 0.00 | 0.00 | 0.00 | 51 | 1012.4 |
| 20260831060001 | 18 | 44 | 0.0 | 1.6 | 0.00 | 0.00 | 0.00 | 51 | 1012.5 |
| 20260831054502 | 19 | 44 | 0.0 | 1.6 | 0.00 | 0.00 | 0.00 | 50 | 1012.5 |
| 20260831053003 | 19 | 44 | 0.0 | 3.2 | 0.00 | 0.00 | 0.00 | 49 | 1012.5 |
| 20260831051602 | 19 | 44 | 0.0 | 4.8 | 0.00 | 0.00 | 0.00 | 48 | 1012.5 |
| 20260831050001 | 19 | 38 | 0.0 | 1.6 | 0.00 | 0.00 | 0.00 | 50 | 1012.5 |
| 20260831044502 | 20 | 31 | 0.0 | 1.6 | 0.00 | 0.00 | 0.00 | 50 | 1012.6 |
| 20260831043002 | 20 | 31 | 0.0 | 3.2 | 0.00 | 0.00 | 0.00 | 49 | 1012.4 |
| 20260831041502 | 20 | 168 | 0.0 | 1.6 | 0.00 | 0.00 | 0.00 | 49 | 1012.3 |
| 20260831040006 | 20 | 168 | 0.0 | 1.6 | 0.00 | 0.00 | 0.00 | 46 | 1012.2 |
| 20260831034607 | 21 | 168 | 0.0 | 1.6 | 0.00 | 0.00 | 0.00 | 44 | 1012.0 |
| 20260831033003 | 22 | 168 | 0.0 | 1.6 | 0.00 | 0.00 | 0.00 | 42 | 1011.9 |
| 20260831031502 | 23 | 168 | 0.0 | 0.0 | 0.00 | 0.00 | 0.00 | 40 | 1011.8 |
| 20260831030002 | 24 | 168 | 0.0 | 0.0 | 0.00 | 0.00 | 0.00 | 37 | 1011.7 |
| 20260831024502 | 25 | 168 | 0.0 | 0.0 | 0.00 | 0.00 | 0.00 | 34 | 1011.7 |
| 20260831023006 | 26 | 168 | 0.0 | 0.0 | 0.00 | 0.00 | 0.00 | 30 | 1011.5 |
| 20260831021502 | 27 | 168 | 0.0 | 0.0 | 0.00 | 0.00 | 0.00 | 28 | 1011.5 |
| 20260831020001 | 28 | 168 | 0.0 | 3.2 | 0.00 | 0.00 | 0.00 | 27 | 1011.5 |
| 20260831014602 | 28 | 220 | 0.0 | 4.8 | 0.00 | 0.00 | 0.00 | 26 | 1011.6 |
| 20260831013003 | 28 | 194 | 1.6 | 4.8 | 0.00 | 0.00 | 0.00 | 25 | 1011.6 |
| 20260831011503 | 28 | 184 | 0.0 | 3.2 | 0.00 | 0.00 | 0.00 | 24 | 1011.6 |
| 20260831010005 | 29 | 246 | 1.6 | 6.4 | 0.00 | 0.00 | 0.00 | 24 | 1011.7 |
| 20260831004503 | 29 | 327 | 0.0 | 4.8 | 0.00 | 0.00 | 0.00 | 24 | 1011.8 |
| 20260831003002 | 29 | 190 | 3.2 | 6.4 | 0.00 | 0.00 | 0.00 | 24 | 1012.0 |
| 20260831001502 | 30 | 177 | 0.0 | 6.4 | 0.00 | 0.00 | 0.00 | 25 | 1012.1 |
| 20260831000002 | 30 | 94 | 0.0 | 6.4 | 0.00 | 0.00 | 0.00 | 24 | 1012.1 |
| 20260830234506 | 30 | 240 | 1.6 | 6.4 | 0.00 | 0.00 | 0.00 | 23 | 1012.2 |
| 20260830233104 | 30 | 300 | 1.6 | 6.4 | 0.00 | 0.00 | 0.00 | 23 | 1012.2 |
| 20260830231503 | 30 | 189 | 3.2 | 9.7 | 0.00 | 0.00 | 0.00 | 23 | 1012.3 |
| 20260830230001 | 30 | 83 | 1.6 | 9.7 | 0.00 | 0.00 | 0.00 | 25 | 1012.4 |
| 20260830224602 | 31 | 162 | 3.2 | 11.3 | 0.00 | 0.00 | 0.00 | 25 | 1012.4 |
| 20260830224502 | 31 | 170 | 1.6 | 4.8 | 0.00 | 0.00 | 0.00 | 26 | 1012.4 |
| 20260830223108 | 31 | 198 | 1.6 | 11.3 | 0.00 | 0.00 | 0.00 | 26 | 1012.6 |
| 20260830223002 | 30 | 223 | 1.6 | 11.3 | 0.00 | 0.00 | 0.00 | 27 | 1012.6 |
| 20260830221502 | 30 | 125 | 3.2 | 9.7 | 0.00 | 0.00 | 0.00 | 27 | 1012.9 |
| 20260830220003 | 30 | 185 | 3.2 | 9.7 | 0.00 | 0.00 | 0.00 | 26 | 1013.0 |
| 20260830214503 | 30 | 202 | 3.2 | 8.0 | 0.00 | 0.00 | 0.00 | 28 | 1013.3 |
| 20260830213004 | 30 | 143 | 3.2 | 8.0 | 0.00 | 0.00 | 0.00 | 27 | 1013.4 |
| 20260830211503 | 30 | 124 | 1.6 | 6.4 | 0.00 | 0.00 | 0.00 | 28 | 1013.5 |
| 20260830210002 | 29 | 152 | 3.2 | 9.7 | 0.00 | 0.00 | 0.00 | 28 | 1013.6 |
| 20260830204503 | 29 | 339 | 1.6 | 6.4 | 0.00 | 0.00 | 0.00 | 28 | 1013.6 |
| 20260830203003 | 29 | 124 | 1.6 | 4.8 | 0.00 | 0.00 | 0.00 | 29 | 1013.7 |
| 20260830201502 | 28 | 148 | 4.8 | 8.0 | 0.00 | 0.00 | 0.00 | 29 | 1013.8 |
| 20260830200002 | 28 | 143 | 1.6 | 6.4 | 0.00 | 0.00 | 0.00 | 29 | 1013.9 |
| 20260830194503 | 27 | 143 | 1.6 | 8.0 | 0.00 | 0.00 | 0.00 | 30 | 1013.9 |
| 20260830193006 | 27 | 201 | 3.2 | 6.4 | 0.00 | 0.00 | 0.00 | 31 | 1013.9 |
| 20260830191507 | 27 | 233 | 3.2 | 8.0 | 0.00 | 0.00 | 0.00 | 32 | 1014.2 |
| 20260830190002 | 26 | 261 | 1.6 | 6.4 | 0.00 | 0.00 | 0.00 | 32 | 1014.2 |
| 20260830184502 | 26 | 291 | 3.2 | 9.7 | 0.00 | 0.00 | 0.00 | 33 | 1014.2 |
| 20260830183002 | 26 | 87 | 3.2 | 11.3 | 0.00 | 0.00 | 0.00 | 34 | 1014.4 |
| 20260830181503 | 26 | 132 | 1.6 | 8.0 | 0.00 | 0.00 | 0.00 | 33 | 1014.4 |
| 20260830180002 | 25 | 208 | 1.6 | 4.8 | 0.00 | 0.00 | 0.00 | 34 | 1014.4 |
| 20260830174502 | 25 | 176 | 1.6 | 6.4 | 0.00 | 0.00 | 0.00 | 34 | 1014.5 |
| 20260830173002 | 24 | 175 | 3.2 | 8.0 | 0.00 | 0.00 | 0.00 | 35 | 1014.6 |
| 20260830171503 | 23 | 249 | 1.6 | 6.4 | 0.00 | 0.00 | 0.00 | 36 | 1014.6 |
| 20260830170003 | 23 | 188 | 1.6 | 6.4 | 0.00 | 0.00 | 0.00 | 36 | 1014.5 |
| 20260830164624 | 22 | 213 | 0.0 | 3.2 | 0.00 | 0.00 | 0.00 | 38 | 1014.4 |
| 20260830163005 | 22 | 162 | 1.6 | 4.8 | 0.00 | 0.00 | 0.00 | 38 | 1014.4 |